DW1083 Weather Reports


time (UTC)temp
C
wind
direction
speed
KPH
gust
KPH
rain 1hr
cm
rain 24hr
cm
rain mn
cm
humidity
%
barometer
mb
20260509043311 7 0 0.0 0.0 0.00 0.00 0.00 87 1017.2
20260509040310 7 0 0.0 0.0 0.00 0.00 0.00 87 1017.2
20260509033310 7 0 0.0 0.0 0.00 0.00 0.00 86 1017.4
20260509030310 7 0 0.0 0.0 0.00 0.00 0.00 85 1017.4
20260509023310 7 0 0.0 0.0 0.00 0.00 0.00 84 1017.8
20260509020310 8 0 0.0 0.0 0.00 0.00 0.00 81 1017.9
20260509013310 9 0 0.0 0.0 0.00 0.00 0.00 80 1018.5
20260509010309 9 0 0.0 0.0 0.00 0.00 0.00 82 1018.6
20260509003310 8 0 0.0 0.0 0.00 0.00 0.00 82 1018.3
20260508233309 8 0 0.0 0.0 0.00 0.00 0.00 80 1018.1
20260508230309 8 0 0.0 0.0 0.00 0.00 0.00 80 1018.4
20260508223309 9 0 0.0 0.0 0.00 0.00 0.00 78 1018.4
20260508220311 10 0 0.0 0.0 0.00 0.00 0.00 77 1018.5
20260508213311 10 0 0.0 0.0 0.00 0.00 0.00 76 1018.1
20260508210318 10 0 0.0 0.0 0.00 0.00 0.00 76 1017.7
20260508203311 10 0 0.0 0.0 0.00 0.00 0.00 74 1017.6
20260508200311 10 0 0.0 0.0 0.00 0.00 0.00 73 1017.3
20260508193311 10 292 0.0 3.2 0.00 0.00 0.00 73 1016.8
20260508190311 10 0 0.0 0.0 0.00 0.00 0.00 70 1016.0
20260508183311 11 0 0.0 0.0 0.00 0.00 0.00 67 1015.6
20260508180310 12 292 3.2 4.8 0.00 0.00 0.00 67 1015.4
20260508173310 13 0 0.0 0.0 0.00 0.00 0.00 64 1014.8
20260508170310 15 270 0.0 3.2 0.00 0.00 0.00 62 1014.8
20260508163310 15 157 0.0 3.2 0.00 0.00 0.00 53 1014.7
20260508160310 15 157 1.6 3.2 0.00 0.00 0.00 55 1014.6
20260508153310 16 157 0.0 4.8 0.00 0.00 0.00 56 1014.7
20260508150308 16 112 1.6 4.8 0.00 0.00 0.00 57 1015.0
20260508143313 16 180 1.6 6.4 0.00 0.00 0.00 55 1015.3
20260508133313 17 180 3.2 11.3 0.00 0.00 0.00 52 1015.8
20260508130312 17 157 6.4 12.9 0.00 0.00 0.00 57 1015.8
20260508123313 17 180 8.0 24.1 0.00 0.00 0.00 57 1016.1
20260508120312 16 180 3.2 12.9 0.00 0.00 0.00 63 1016.3
20260508113313 15 225 3.2 8.0 0.00 0.00 0.00 64 1016.3
20260508110312 15 157 3.2 9.7 0.00 0.00 0.00 64 1016.3
20260508103312 15 157 6.4 16.1 0.00 0.00 0.00 63 1016.4
20260508100312 15 180 4.8 12.9 0.00 0.00 0.00 68 1016.8
20260508093312 14 157 6.4 11.3 0.00 0.00 0.00 71 1016.8
20260508090312 13 157 6.4 12.9 0.00 0.00 0.00 72 1016.6
20260508080312 12 157 4.8 8.0 0.00 0.00 0.00 77 1016.5
20260508070311 10 0 0.0 0.0 0.00 0.00 0.00 79 1016.0
20260508063311 8 0 0.0 0.0 0.00 0.00 0.00 82 1016.2
20260508060311 7 0 0.0 0.0 0.00 0.00 0.00 88 1015.5
20260508050311 3 0 0.0 0.0 0.00 0.00 0.00 93 1014.9